,,,PA_Meas_PMT16A,,PR_Meas_QMR101_102,,RH_Meas_QMH101,,SR_Meas_QMS101,,TA_Meas_QMH101,,GenWind,,GenWind,
date,time,status,PA,status,PR,status,RH,status,SR,status,TA,status,DirAvg,status,SpdAvg,
2009-09-18, 00:00:05,VALID,1001.26,VALID,0,VALID,89.2055,VALID,0,VALID,22.9793,VALID,36,VALID,1.01992,
2009-09-18, 00:01:05,VALID,1001.26,VALID,0,VALID,89.5794,VALID,0,VALID,22.9013,VALID,36,VALID,0.98125,
2009-09-18, 00:02:05,VALID,1001.26,VALID,0,VALID,89.9837,VALID,0,VALID,22.8623,VALID,34,VALID,0.843359,
2009-09-18, 00:03:05,VALID,1001.25,VALID,0,VALID,90.144,VALID,0,VALID,22.802,VALID,34,VALID,0.725,
2009-09-18, 00:04:05,VALID,1001.26,VALID,0,VALID,90.3957,VALID,0,VALID,22.763,VALID,34,VALID,0.853125,
2009-09-18, 00:05:05,VALID,1001.25,VALID,0,VALID,90.4415,VALID,0.112286,VALID,22.7647,VALID,35,VALID,0.760938,
2009-09-18, 00:06:05,VALID,1001.28,VALID,0,VALID,90.5788,VALID,0,VALID,22.7045,VALID,35,VALID,0.655469,
2009-09-18, 00:07:05,VALID,1001.26,VALID,0,VALID,90.6704,VALID,0,VALID,22.685,VALID,35,VALID,0.455859,
2009-09-18, 00:08:05,VALID,1001.27,VALID,0,VALID,90.6628,VALID,0,VALID,22.6867,VALID,35,VALID,0.251953,
2009-09-18, 00:09:05,VALID,1001.23,VALID,0,VALID,90.8306,VALID,0.112286,VALID,22.6264,VALID,35,VALID,0.261328,
2009-09-18, 00:10:05,VALID,1001.19,VALID,0,VALID,90.8535,VALID,0,VALID,22.6069,VALID,35,VALID,0.171484,
2009-09-18, 00:11:05,VALID,1001.19,VALID,0,VALID,90.968,VALID,0,VALID,22.5874,VALID,35,VALID,0.411719,
2009-09-18, 00:12:05,VALID,1001.17,VALID,0,VALID,91.0366,VALID,0,VALID,22.5679,VALID,32,VALID,0.657812,
2009-09-18, 00:13:05,VALID,1001.21,VALID,0,VALID,91.4563,VALID,0,VALID,22.5909,VALID,27,VALID,0.772656,
2009-09-18, 00:14:05,VALID,1001.19,VALID,0,VALID,91.6775,VALID,0,VALID,22.5696,VALID,14,VALID,1.04492,
2009-09-18, 00:15:05,VALID,1001.19,VALID,0,VALID,91.4944,VALID,0,VALID,22.5909,VALID,4,VALID,0.943359,
2009-09-18, 00:16:05,VALID,1001.23,VALID,0,VALID,91.7462,VALID,0,VALID,22.5892,VALID,360,VALID,0.917969,
2009-09-18, 00:17:05,VALID,1001.2,VALID,0,VALID,91.586,VALID,0,VALID,22.6087,VALID,7,VALID,1.03398,
2009-09-18, 00:18:05,VALID,1001.2,VALID,0,VALID,91.7309,VALID,0,VALID,22.5892,VALID,9,VALID,1.18789,
2009-09-18, 00:19:05,VALID,1001.2,VALID,0,VALID,91.9064,VALID,0,VALID,22.5874,VALID,10,VALID,1.2793,
2009-09-18, 00:20:05,VALID,1001.18,VALID,0,VALID,92.1887,VALID,0,VALID,22.6477,VALID,10,VALID,1.37852,
2009-09-18, 00:21:05,VALID,1001.18,VALID,0,VALID,92.0437,VALID,0,VALID,22.7062,VALID,16,VALID,1.28437,
2009-09-18, 00:22:05,VALID,1001.18,VALID,0,VALID,91.6851,VALID,0,VALID,22.7647,VALID,20,VALID,1.0207,
2009-09-18, 00:23:05,VALID,1001.15,VALID,0,VALID,91.4868,VALID,0,VALID,22.7647,VALID,30,VALID,0.929297,
2009-09-18, 00:24:05,VALID,1001.14,VALID,0,VALID,91.3342,VALID,0,VALID,22.724,VALID,45,VALID,0.660937,
2009-09-18, 00:25:05,VALID,1001.09,VALID,0,VALID,91.296,VALID,0,VALID,22.7045,VALID,50,VALID,0.659375,
2009-09-18, 00:26:05,VALID,1001.08,VALID,0,VALID,91.7157,VALID,0,VALID,22.763,VALID,67,VALID,0.667969,
2009-09-18, 00:27:05,VALID,1001.06,VALID,0,VALID,91.5173,VALID,0,VALID,22.8037,VALID,77,VALID,0.951953,
2009-09-18, 00:28:05,VALID,1001,VALID,0,VALID,91.1663,VALID,0,VALID,22.8215,VALID,97,VALID,0.910937,
2009-09-18, 00:29:05,VALID,1001.02,VALID,0,VALID,91.1587,VALID,0,VALID,22.8605,VALID,97,VALID,0.75625,
2009-09-18, 00:30:05,VALID,1001.01,VALID,0,VALID,90.6475,VALID,0,VALID,22.8995,VALID,113,VALID,0.746484,
2009-09-18, 00:31:05,VALID,1001.02,VALID,0,VALID,90.6323,VALID,0,VALID,22.9385,VALID,114,VALID,0.811719,
2009-09-18, 00:32:05,VALID,1001.02,VALID,0,VALID,90.3347,VALID,0.112286,VALID,22.9971,VALID,122,VALID,0.817969,
2009-09-18, 00:33:05,VALID,1001.07,VALID,0,VALID,90.0371,VALID,0,VALID,23.0573,VALID,128,VALID,0.954297,
2009-09-18, 00:34:05,VALID,1001.06,VALID,0,VALID,89.6786,VALID,0,VALID,23.1141,VALID,142,VALID,1.08047,
2009-09-18, 00:35:05,VALID,1001.05,VALID,0,VALID,89.3428,VALID,0.112286,VALID,23.1726,VALID,153,VALID,0.897656,
2009-09-18, 00:36:05,VALID,1001.06,VALID,0,VALID,88.8622,VALID,0,VALID,23.2312,VALID,139,VALID,1.13711,
2009-09-18, 00:37:05,VALID,1001.03,VALID,0,VALID,88.2823,VALID,0.112286,VALID,23.3287,VALID,144,VALID,1.01992,
2009-09-18, 00:38:05,VALID,1001.05,VALID,0,VALID,87.8322,VALID,0.112286,VALID,23.3872,VALID,147,VALID,0.771875,
2009-09-18, 00:39:05,VALID,1001.04,VALID,0,VALID,87.4965,VALID,0.112286,VALID,23.4263,VALID,148,VALID,0.771875,
2009-09-18, 00:40:05,VALID,1001.04,VALID,0,VALID,87.1379,VALID,0.112286,VALID,23.5061,VALID,159,VALID,0.940234,
2009-09-18, 00:41:05,VALID,1001.05,VALID,0,VALID,86.8709,VALID,0.112286,VALID,23.5238,VALID,157,VALID,0.794922,
2009-09-18, 00:42:05,VALID,1001.04,VALID,0,VALID,86.7106,VALID,0,VALID,23.5628,VALID,160,VALID,0.906641,
2009-09-18, 00:43:05,VALID,1001.1,VALID,0,VALID,86.1918,VALID,0,VALID,23.6427,VALID,162,VALID,0.640625,
2009-09-18, 00:44:05,VALID,1001.09,VALID,0,VALID,85.9172,VALID,0,VALID,23.6622,VALID,162,VALID,0.675,
2009-09-18, 00:45:05,VALID,1001.09,VALID,0,VALID,85.8866,VALID,0,VALID,23.6817,VALID,162,VALID,0.546094,
2009-09-18, 00:46:05,VALID,1001.07,VALID,0,VALID,85.8256,VALID,0,VALID,23.7012,VALID,162,VALID,0.558203,
2009-09-18, 00:47:05,VALID,1001.07,VALID,0,VALID,85.6501,VALID,0,VALID,23.7402,VALID,173,VALID,1.37383,
2009-09-18, 00:48:05,VALID,1001.06,VALID,0,VALID,85.2915,VALID,0,VALID,23.8396,VALID,169,VALID,0.912109,
2009-09-18, 00:49:05,VALID,1001.06,VALID,0,VALID,85.1008,VALID,0,VALID,23.8786,VALID,170,VALID,0.808594,
2009-09-18, 00:50:05,VALID,1001.04,VALID,0,VALID,84.7956,VALID,0,VALID,23.9177,VALID,158,VALID,1.17656,
2009-09-18, 00:51:05,VALID,1001.04,VALID,0,VALID,84.4217,VALID,0,VALID,23.9549,VALID,160,VALID,1.07187,
2009-09-18, 00:52:05,VALID,1001,VALID,0,VALID,84.2539,VALID,0,VALID,23.9939,VALID,144,VALID,1.0293,
2009-09-18, 00:53:05,VALID,1000.99,VALID,0,VALID,83.9869,VALID,0,VALID,23.9939,VALID,137,VALID,1.04492,
2009-09-18, 00:54:05,VALID,1000.96,VALID,0,VALID,83.9716,VALID,0,VALID,23.9549,VALID,138,VALID,1.03789,
2009-09-18, 00:55:05,VALID,1000.98,VALID,0,VALID,84.2463,VALID,0,VALID,23.9549,VALID,125,VALID,1.09453,
2009-09-18, 00:56:05,VALID,1000.99,VALID,0,VALID,84.292,VALID,0,VALID,23.8963,VALID,133,VALID,0.871484,
2009-09-18, 00:57:05,VALID,1000.98,VALID,0,VALID,84.704,VALID,0,VALID,23.8786,VALID,135,VALID,0.764453,
2009-09-18, 00:58:05,VALID,1001.01,VALID,0,VALID,84.9406,VALID,0,VALID,23.8573,VALID,142,VALID,1.01523,
2009-09-18, 00:59:05,VALID,1001,VALID,0,VALID,84.8337,VALID,0.112286,VALID,23.8768,VALID,166,VALID,0.930078,
2009-09-18, 01:00:05,VALID,1000.99,VALID,0,VALID,84.7346,VALID,0,VALID,23.8768,VALID,153,VALID,1.2793,
2009-09-18, 01:01:05,VALID,1001,VALID,0,VALID,84.6964,VALID,0,VALID,23.8963,VALID,162,VALID,0.779297,
2009-09-18, 01:02:05,VALID,1000.97,VALID,0,VALID,84.6735,VALID,0,VALID,23.914,VALID,161,VALID,0.529688,
2009-09-18, 01:03:05,VALID,1000.94,VALID,0,VALID,84.5591,VALID,0,VALID,23.9159,VALID,164,VALID,0.526563,
2009-09-18, 01:04:05,VALID,1000.96,VALID,0,VALID,84.5286,VALID,0,VALID,23.9354,VALID,174,VALID,0.678125,
2009-09-18, 01:05:05,VALID,1000.98,VALID,0,VALID,84.5286,VALID,0,VALID,23.9336,VALID,174,VALID,0.430859,
2009-09-18, 01:06:05,VALID,1000.98,VALID,0,VALID,84.4523,VALID,0,VALID,23.9549,VALID,162,VALID,0.639453,
2009-09-18, 01:07:05,VALID,1000.98,VALID,0,VALID,84.4752,VALID,0,VALID,23.9336,VALID,160,VALID,0.169141,
2009-09-18, 01:08:05,VALID,1000.99,VALID,0,VALID,84.5286,VALID,0,VALID,23.9354,VALID,160,VALID,0.355859,
2009-09-18, 01:09:05,VALID,1000.96,VALID,0,VALID,84.5286,VALID,0,VALID,23.8945,VALID,160,VALID,0,
2009-09-18, 01:10:05,VALID,1001,VALID,0,VALID,84.5133,VALID,0,VALID,23.8573,VALID,160,VALID,0.0835937,
2009-09-18, 01:11:05,VALID,1000.98,VALID,0,VALID,84.6812,VALID,0,VALID,23.8183,VALID,178,VALID,0.260938,
2009-09-18, 01:12:05,VALID,1000.99,VALID,0,VALID,84.5667,VALID,0,VALID,23.7207,VALID,258,VALID,0.632422,
2009-09-18, 01:13:05,VALID,1000.96,VALID,0,VALID,85.0245,VALID,0,VALID,23.5451,VALID,296,VALID,0.415234,
2009-09-18, 01:14:05,VALID,1000.92,VALID,0,VALID,85.8866,VALID,0,VALID,23.428,VALID,310,VALID,0.548828,
2009-09-18, 01:15:05,VALID,1000.93,VALID,0,VALID,86.4589,VALID,0,VALID,23.3305,VALID,311,VALID,0.454688,
2009-09-18, 01:16:05,VALID,1000.9,VALID,0,VALID,87.0921,VALID,0,VALID,23.2719,VALID,311,VALID,0.267578,
2009-09-18, 01:17:05,VALID,1000.86,VALID,0,VALID,86.6877,VALID,0,VALID,23.1726,VALID,11,VALID,0.473828,
2009-09-18, 01:18:05,VALID,1000.87,VALID,0,VALID,87.4812,VALID,0,VALID,23.1549,VALID,14,VALID,0.287109,
2009-09-18, 01:19:05,VALID,1000.89,VALID,0,VALID,87.5346,VALID,0,VALID,23.1159,VALID,14,VALID,0.467578,
2009-09-18, 01:20:05,VALID,1000.9,VALID,0,VALID,87.6109,VALID,0,VALID,23.0769,VALID,14,VALID,0,
2009-09-18, 01:21:05,VALID,1000.93,VALID,0,VALID,88.0306,VALID,0,VALID,23.0573,VALID,14,VALID,0,
2009-09-18, 01:22:05,VALID,1000.95,VALID,0,VALID,88.2594,VALID,0,VALID,23.0573,VALID,14,VALID,0.175391,
2009-09-18, 01:23:05,VALID,1000.92,VALID,0,VALID,88.3739,VALID,0,VALID,23.0964,VALID,14,VALID,0,
2009-09-18, 01:24:05,VALID,1000.93,VALID,0,VALID,88.4807,VALID,0,VALID,23.0751,VALID,14,VALID,0.328516,
2009-09-18, 01:25:05,VALID,1000.94,VALID,0,VALID,88.6714,VALID,0,VALID,23.0964,VALID,14,VALID,0.046875,
2009-09-18, 01:26:05,VALID,1000.9,VALID,0,VALID,88.3739,VALID,0,VALID,23.0964,VALID,14,VALID,0,
2009-09-18, 01:27:05,VALID,1000.92,VALID,0,VALID,88.5417,VALID,0,VALID,23.1159,VALID,14,VALID,0,
2009-09-18, 01:28:05,VALID,1000.93,VALID,0,VALID,88.6714,VALID,0,VALID,23.1549,VALID,14,VALID,0,
2009-09-18, 01:29:05,VALID,1000.92,VALID,0,VALID,88.6257,VALID,0,VALID,23.1531,VALID,14,VALID,0,
2009-09-18, 01:30:05,VALID,1000.92,VALID,0,VALID,88.5875,VALID,0,VALID,23.1744,VALID,14,VALID,0,
2009-09-18, 01:31:05,VALID,1000.91,VALID,0,VALID,88.5189,VALID,0,VALID,23.1939,VALID,14,VALID,0.104297,
2009-09-18, 01:32:05,VALID,1000.93,VALID,0,VALID,88.5112,VALID,0,VALID,23.1921,VALID,14,VALID,0.275391,
2009-09-18, 01:33:05,VALID,1000.93,VALID,0,VALID,88.3968,VALID,0,VALID,23.2134,VALID,14,VALID,0.330859,
2009-09-18, 01:34:05,VALID,1000.93,VALID,0,VALID,88.5646,VALID,0,VALID,23.2134,VALID,14,VALID,0.315234,
2009-09-18, 01:35:05,VALID,1000.94,VALID,0,VALID,87.8856,VALID,0.112286,VALID,23.1726,VALID,14,VALID,0.346094,
2009-09-18, 01:36:05,VALID,1000.91,VALID,0,VALID,87.2752,VALID,0,VALID,23.0946,VALID,14,VALID,0.200391,
2009-09-18, 01:37:05,VALID,1000.9,VALID,0,VALID,88.1145,VALID,0.112286,VALID,23.0183,VALID,14,VALID,0.265234,
2009-09-18, 01:38:05,VALID,1000.88,VALID,0,VALID,88.7706,VALID,0,VALID,22.9988,VALID,14,VALID,0.209375,
2009-09-18, 01:39:05,VALID,1000.85,VALID,0,VALID,88.6486,VALID,0,VALID,22.9598,VALID,14,VALID,0.125391,
2009-09-18, 01:40:05,VALID,1000.83,VALID,0,VALID,87.8169,VALID,0,VALID,22.8427,VALID,17,VALID,0.418359,
2009-09-18, 01:41:05,VALID,1000.84,VALID,0,VALID,88.7477,VALID,0,VALID,22.7647,VALID,17,VALID,0.382031,
2009-09-18, 01:42:05,VALID,1000.79,VALID,0,VALID,89.7854,VALID,0,VALID,22.7257,VALID,17,VALID,0.419141,
2009-09-18, 01:43:05,VALID,1000.8,VALID,0,VALID,90.0906,VALID,0,VALID,22.7257,VALID,17,VALID,0.238672,
2009-09-18, 01:44:05,VALID,1000.77,VALID,0,VALID,90.0371,VALID,0,VALID,22.7257,VALID,17,VALID,0.394141,
2009-09-18, 01:45:05,VALID,1000.77,VALID,0,VALID,89.9532,VALID,0,VALID,22.7062,VALID,30,VALID,0.750781,
2009-09-18, 01:46:05,VALID,1000.75,VALID,0,VALID,89.732,VALID,0,VALID,22.7062,VALID,38,VALID,0.789453,
2009-09-18, 01:47:05,VALID,1000.8,VALID,0,VALID,89.7014,VALID,0,VALID,22.7257,VALID,45,VALID,0.840625,
2009-09-18, 01:48:05,VALID,1000.79,VALID,0,VALID,88.5951,VALID,0,VALID,22.7062,VALID,71,VALID,1.02227,
2009-09-18, 01:49:05,VALID,1000.79,VALID,0,VALID,88.3892,VALID,0.112286,VALID,22.6655,VALID,71,VALID,1.00547,
2009-09-18, 01:50:04,VALID,1000.8,VALID,0,VALID,88.3586,VALID,0,VALID,22.6087,VALID,72,VALID,0.639063,
2009-09-18, 01:51:04,VALID,1000.8,VALID,0,VALID,88.8927,VALID,0,VALID,22.5696,VALID,72,VALID,0.647656,
2009-09-18, 01:52:04,VALID,1000.78,VALID,0,VALID,89.2513,VALID,0,VALID,22.5111,VALID,72,VALID,0.628125,
2009-09-18, 01:53:04,VALID,1000.77,VALID,0,VALID,89.4726,VALID,0,VALID,22.4721,VALID,72,VALID,0.473828,
2009-09-18, 01:54:04,VALID,1000.77,VALID,0,VALID,89.1903,VALID,0,VALID,22.4331,VALID,72,VALID,0.527734,
2009-09-18, 01:55:04,VALID,1000.8,VALID,0,VALID,89.7243,VALID,0,VALID,22.3941,VALID,72,VALID,0.463672,
2009-09-18, 01:56:04,VALID,1000.75,VALID,0,VALID,90.0906,VALID,0,VALID,22.3551,VALID,72,VALID,0.679297,
2009-09-18, 01:57:04,VALID,1000.75,VALID,0,VALID,90.4873,VALID,0,VALID,22.3746,VALID,72,VALID,0.674609,
2009-09-18, 01:58:04,VALID,1000.73,VALID,0,VALID,90.7085,VALID,0,VALID,22.3763,VALID,87,VALID,0.991016,
2009-09-18, 01:59:04,VALID,1000.76,VALID,0,VALID,90.4644,VALID,0,VALID,22.3958,VALID,89,VALID,0.658203,
2009-09-18, 02:00:04,VALID,1000.75,VALID,0,VALID,89.9151,VALID,0,VALID,22.3568,VALID,90,VALID,0.489062,
2009-09-18, 02:01:04,VALID,1000.75,VALID,0,VALID,90.4186,VALID,0,VALID,22.3373,VALID,90,VALID,0.439844,
2009-09-18, 02:02:04,VALID,1000.76,VALID,0,VALID,90.3042,VALID,0,VALID,22.2966,VALID,90,VALID,0.124219,
2009-09-18, 02:03:04,VALID,1000.79,VALID,0,VALID,90.0371,VALID,0,VALID,22.2592,VALID,90,VALID,0,
2009-09-18, 02:04:04,VALID,1000.79,VALID,0,VALID,90.4186,VALID,0,VALID,22.2202,VALID,90,VALID,0.280859,
2009-09-18, 02:05:04,VALID,1000.77,VALID,0,VALID,90.8917,VALID,0,VALID,22.2397,VALID,88,VALID,0.293359,
2009-09-18, 02:06:04,VALID,1000.75,VALID,0,VALID,90.8459,VALID,0,VALID,22.2397,VALID,88,VALID,0.445313,
2009-09-18, 02:07:04,VALID,1000.73,VALID,0,VALID,90.823,VALID,0,VALID,22.2202,VALID,87,VALID,0.597656,
2009-09-18, 02:08:04,VALID,1000.74,VALID,0,VALID,90.9756,VALID,0,VALID,22.2007,VALID,65,VALID,0.626562,
2009-09-18, 02:09:04,VALID,1000.71,VALID,0,VALID,91.0824,VALID,0,VALID,22.1812,VALID,65,VALID,0.358594,
2009-09-18, 02:10:04,VALID,1000.69,VALID,0,VALID,90.7162,VALID,0,VALID,22.1422,VALID,65,VALID,0.375781,
2009-09-18, 02:11:04,VALID,1000.69,VALID,0,VALID,91.2121,VALID,0,VALID,22.1227,VALID,65,VALID,0.739844,
2009-09-18, 02:12:04,VALID,1000.71,VALID,0,VALID,91.5097,VALID,0,VALID,22.1227,VALID,65,VALID,0.648047,
2009-09-18, 02:13:04,VALID,1000.7,VALID,0,VALID,91.1282,VALID,0,VALID,22.1032,VALID,65,VALID,0.424609,
2009-09-18, 02:14:04,VALID,1000.71,VALID,0,VALID,91.3571,VALID,0,VALID,22.0642,VALID,65,VALID,0.481641,
2009-09-18, 02:15:04,VALID,1000.68,VALID,0,VALID,91.6012,VALID,0,VALID,22.0642,VALID,65,VALID,0.45625,
2009-09-18, 02:16:04,VALID,1000.67,VALID,0,VALID,91.8148,VALID,0,VALID,22.1032,VALID,65,VALID,0.552344,
2009-09-18, 02:17:04,VALID,1000.67,VALID,0,VALID,91.7233,VALID,0,VALID,22.1032,VALID,65,VALID,0.632031,
2009-09-18, 02:18:04,VALID,1000.69,VALID,0,VALID,91.8759,VALID,0,VALID,22.1422,VALID,65,VALID,0.660547,
2009-09-18, 02:19:04,VALID,1000.72,VALID,0,VALID,91.708,VALID,0,VALID,22.1015,VALID,51,VALID,0.703906,
2009-09-18, 02:20:04,VALID,1000.71,VALID,0,VALID,90.8383,VALID,0,VALID,22.043,VALID,43,VALID,0.763281,
2009-09-18, 02:21:04,VALID,1000.7,VALID,0,VALID,91.3418,VALID,0,VALID,21.9862,VALID,30,VALID,1.06719,
2009-09-18, 02:22:04,VALID,1000.72,VALID,0,VALID,91.4486,VALID,0,VALID,21.9455,VALID,30,VALID,1.10586,
2009-09-18, 02:23:04,VALID,1000.68,VALID,0,VALID,91.235,VALID,0,VALID,21.887,VALID,29,VALID,0.998047,
2009-09-18, 02:24:04,VALID,1000.67,VALID,0,VALID,90.8688,VALID,0,VALID,21.7911,VALID,29,VALID,0.915234,
2009-09-18, 02:25:04,VALID,1000.67,VALID,0,VALID,91.3418,VALID,0,VALID,21.7521,VALID,36,VALID,0.860156,
2009-09-18, 02:26:04,VALID,1000.64,VALID,0,VALID,91.3494,VALID,0,VALID,21.6936,VALID,44,VALID,0.589063,
2009-09-18, 02:27:04,VALID,1000.66,VALID,0,VALID,92.059,VALID,0,VALID,21.653,VALID,59,VALID,0.846484,
2009-09-18, 02:28:04,VALID,1000.67,VALID,0,VALID,92.4557,VALID,0,VALID,21.7521,VALID,60,VALID,0.783203,
2009-09-18, 02:29:04,VALID,1000.67,VALID,0,VALID,92.4481,VALID,0,VALID,21.7911,VALID,60,VALID,0.619141,
2009-09-18, 02:30:04,VALID,1000.7,VALID,0,VALID,92.326,VALID,0,VALID,21.7911,VALID,60,VALID,0.590234,
2009-09-18, 02:31:04,VALID,1000.69,VALID,0,VALID,92.2116,VALID,0,VALID,21.7895,VALID,60,VALID,0.670703,
2009-09-18, 02:32:04,VALID,1000.69,VALID,0,VALID,92.2268,VALID,0,VALID,21.8106,VALID,60,VALID,0.719531,
2009-09-18, 02:33:04,VALID,1000.71,VALID,0,VALID,92.41,VALID,0,VALID,21.8106,VALID,60,VALID,0.654688,
2009-09-18, 02:34:04,VALID,1000.7,VALID,0,VALID,92.3031,VALID,0,VALID,21.8301,VALID,60,VALID,0.558203,
2009-09-18, 02:35:04,VALID,1000.71,VALID,0,VALID,92.265,VALID,0,VALID,21.8285,VALID,60,VALID,0.403516,
2009-09-18, 02:36:04,VALID,1000.7,VALID,0,VALID,92.2955,VALID,0,VALID,21.809,VALID,60,VALID,0.405078,
2009-09-18, 02:37:04,VALID,1000.7,VALID,0,VALID,92.2116,VALID,0,VALID,21.8496,VALID,60,VALID,0.423438,
2009-09-18, 02:38:04,VALID,1000.71,VALID,0,VALID,92.1658,VALID,0,VALID,21.8301,VALID,60,VALID,0.302344,
2009-09-18, 02:39:04,VALID,1000.71,VALID,0,VALID,91.9674,VALID,0,VALID,21.8106,VALID,60,VALID,0.267969,
2009-09-18, 02:40:04,VALID,1000.69,VALID,0,VALID,91.8072,VALID,0,VALID,21.7505,VALID,60,VALID,0.111328,
2009-09-18, 02:41:04,VALID,1000.65,VALID,0,VALID,91.8148,VALID,0,VALID,21.7115,VALID,60,VALID,0,
2009-09-18, 02:42:04,VALID,1000.64,VALID,0,VALID,92.1658,VALID,0,VALID,21.7326,VALID,60,VALID,0.319531,
2009-09-18, 02:43:04,VALID,1000.65,VALID,0,VALID,92.2574,VALID,0.112286,VALID,21.7505,VALID,40,VALID,0.489062,
2009-09-18, 02:44:04,VALID,1000.66,VALID,0,VALID,92.2421,VALID,0.112286,VALID,21.7505,VALID,22,VALID,0.49375,
2009-09-18, 02:45:04,VALID,1000.65,VALID,0,VALID,92.1887,VALID,0,VALID,21.731,VALID,339,VALID,0.588672,
2009-09-18, 02:46:04,VALID,1000.64,VALID,0,VALID,92.3642,VALID,0,VALID,21.7505,VALID,339,VALID,0.754297,
2009-09-18, 02:47:04,VALID,1000.63,VALID,0,VALID,92.0819,VALID,0,VALID,21.6708,VALID,339,VALID,0.785547,
2009-09-18, 02:48:04,VALID,1000.62,VALID,0,VALID,92.326,VALID,0,VALID,21.6725,VALID,339,VALID,0.573828,
2009-09-18, 02:49:04,VALID,1000.65,VALID,0,VALID,92.2497,VALID,0,VALID,21.653,VALID,339,VALID,0.439453,
2009-09-18, 02:50:04,VALID,1000.64,VALID,0,VALID,92.3489,VALID,0,VALID,21.6123,VALID,339,VALID,0.364062,
2009-09-18, 02:51:04,VALID,1000.64,VALID,0,VALID,92.6388,VALID,0.112286,VALID,21.6725,VALID,339,VALID,0.564062,
2009-09-18, 02:52:04,VALID,1000.62,VALID,0,VALID,92.8906,VALID,0,VALID,21.7293,VALID,339,VALID,0.470313,
2009-09-18, 02:53:04,VALID,1000.64,VALID,0,VALID,92.8525,VALID,0,VALID,21.7895,VALID,339,VALID,0.339063,
2009-09-18, 02:54:04,VALID,1000.62,VALID,0,VALID,92.6923,VALID,0,VALID,21.809,VALID,339,VALID,0.233594,
2009-09-18, 02:55:04,VALID,1000.66,VALID,0,VALID,92.6312,VALID,0,VALID,21.809,VALID,339,VALID,0.223828,
2009-09-18, 02:56:04,VALID,1000.64,VALID,0,VALID,92.616,VALID,0.112286,VALID,21.809,VALID,339,VALID,0.298828,
2009-09-18, 02:57:04,VALID,1000.64,VALID,0,VALID,92.4634,VALID,0.112286,VALID,21.7895,VALID,339,VALID,0.0773437,
2009-09-18, 02:58:04,VALID,1000.64,VALID,0,VALID,92.7304,VALID,0,VALID,21.8301,VALID,175,VALID,0.357031,
2009-09-18, 02:59:04,VALID,1000.63,VALID,0,VALID,92.9059,VALID,0,VALID,21.887,VALID,175,VALID,0.512109,
2009-09-18, 03:00:04,VALID,1000.64,VALID,0,VALID,92.7685,VALID,0,VALID,21.9667,VALID,175,VALID,0.228906,
2009-09-18, 03:01:04,VALID,1000.66,VALID,0,VALID,92.4786,VALID,0,VALID,21.9667,VALID,175,VALID,0.05625,
2009-09-18, 03:02:04,VALID,1000.68,VALID,0,VALID,92.5168,VALID,0,VALID,21.9862,VALID,175,VALID,0.745703,
2009-09-18, 03:03:04,VALID,1000.69,VALID,0,VALID,92.6999,VALID,0,VALID,22.0837,VALID,175,VALID,0.80625,
2009-09-18, 03:04:04,VALID,1000.71,VALID,0,VALID,92.7457,VALID,0,VALID,22.2202,VALID,175,VALID,1.07344,
2009-09-18, 03:05:04,VALID,1000.74,VALID,0,VALID,92.4405,VALID,0,VALID,22.3568,VALID,175,VALID,0.785156,
2009-09-18, 03:06:04,VALID,1000.75,VALID,0,VALID,91.8225,VALID,0,VALID,22.5128,VALID,175,VALID,0.548828,
2009-09-18, 03:07:04,VALID,1000.73,VALID,0,VALID,90.9909,VALID,0,VALID,22.5714,VALID,175,VALID,0.282422,
2009-09-18, 03:08:04,VALID,1000.74,VALID,0,VALID,90.5483,VALID,0,VALID,22.5323,VALID,260,VALID,0.630078,
2009-09-18, 03:09:04,VALID,1000.73,VALID,0,VALID,90.0448,VALID,0,VALID,22.4738,VALID,298,VALID,0.699609,
2009-09-18, 03:10:04,VALID,1000.74,VALID,0,VALID,89.5107,VALID,0,VALID,22.3356,VALID,318,VALID,0.834766,
2009-09-18, 03:11:04,VALID,1000.73,VALID,0,VALID,89.8083,VALID,0,VALID,22.2007,VALID,320,VALID,0.81875,
2009-09-18, 03:12:04,VALID,1000.74,VALID,0,VALID,90.1668,VALID,0,VALID,22.1032,VALID,320,VALID,0.610937,
2009-09-18, 03:13:04,VALID,1000.75,VALID,0,VALID,90.6094,VALID,0,VALID,22.0447,VALID,320,VALID,0.683203,
2009-09-18, 03:14:04,VALID,1000.78,VALID,0,VALID,90.6933,VALID,0,VALID,21.9667,VALID,320,VALID,0.359766,
2009-09-18, 03:15:04,VALID,1000.77,VALID,0,VALID,90.6399,VALID,0,VALID,21.9082,VALID,320,VALID,0.110937,
2009-09-18, 03:16:04,VALID,1000.74,VALID,0,VALID,90.8077,VALID,0,VALID,21.8496,VALID,320,VALID,0,
2009-09-18, 03:17:04,VALID,1000.75,VALID,0,VALID,91.3876,VALID,0,VALID,21.8692,VALID,267,VALID,0.455859,
2009-09-18, 03:18:04,VALID,1000.71,VALID,0,VALID,91.5097,VALID,0,VALID,21.8887,VALID,135,VALID,0.337109,
2009-09-18, 03:19:04,VALID,1000.75,VALID,0,VALID,91.2808,VALID,0,VALID,21.8496,VALID,116,VALID,0.591797,
2009-09-18, 03:20:04,VALID,1000.71,VALID,0,VALID,91.8606,VALID,0,VALID,21.8887,VALID,152,VALID,0.866016,
2009-09-18, 03:21:04,VALID,1000.68,VALID,0,VALID,91.6928,VALID,0,VALID,21.9082,VALID,119,VALID,0.825391,
2009-09-18, 03:22:04,VALID,1000.67,VALID,0,VALID,91.3647,VALID,0,VALID,21.9667,VALID,133,VALID,0.922266,
2009-09-18, 03:23:04,VALID,1000.65,VALID,0,VALID,91.2274,VALID,0,VALID,22.0837,VALID,141,VALID,1.08125,
2009-09-18, 03:24:04,VALID,1000.65,VALID,0,VALID,90.9146,VALID,0,VALID,22.2202,VALID,142,VALID,1.16172,
2009-09-18, 03:25:04,VALID,1000.62,VALID,0,VALID,89.6328,VALID,0,VALID,22.3941,VALID,149,VALID,1.2332,
2009-09-18, 03:26:04,VALID,1000.6,VALID,0,VALID,88.5341,VALID,0,VALID,22.5519,VALID,152,VALID,1.02344,
2009-09-18, 03:27:04,VALID,1000.59,VALID,0,VALID,87.3668,VALID,0,VALID,22.5909,VALID,128,VALID,1.0043,
2009-09-18, 03:28:04,VALID,1000.63,VALID,0,VALID,87.9466,VALID,0,VALID,22.6104,VALID,156,VALID,1.17383,
2009-09-18, 03:29:04,VALID,1000.62,VALID,0,VALID,87.4049,VALID,0,VALID,22.6494,VALID,159,VALID,1.0375,
2009-09-18, 03:30:04,VALID,1000.64,VALID,0,VALID,87.7483,VALID,0,VALID,22.6884,VALID,161,VALID,1.15898,
2009-09-18, 03:31:04,VALID,1000.63,VALID,0,VALID,87.6338,VALID,0,VALID,22.7842,VALID,172,VALID,1.33633,
2009-09-18, 03:32:04,VALID,1000.67,VALID,0,VALID,87.2371,VALID,0,VALID,22.942,VALID,171,VALID,1.11523,
2009-09-18, 03:33:04,VALID,1000.67,VALID,0,VALID,86.6725,VALID,0,VALID,23.0981,VALID,159,VALID,1.5125,
2009-09-18, 03:34:04,VALID,1000.67,VALID,0,VALID,85.7874,VALID,0,VALID,23.2152,VALID,162,VALID,0.960156,
2009-09-18, 03:35:04,VALID,1000.7,VALID,0,VALID,85.2076,VALID,0,VALID,23.2737,VALID,168,VALID,1.08438,
2009-09-18, 03:36:04,VALID,1000.72,VALID,0,VALID,85.1466,VALID,0,VALID,23.2932,VALID,167,VALID,0.9125,
2009-09-18, 03:37:04,VALID,1000.72,VALID,0,VALID,84.9863,VALID,0,VALID,23.2932,VALID,155,VALID,0.666797,
2009-09-18, 03:38:04,VALID,1000.74,VALID,0,VALID,84.9253,VALID,0,VALID,23.2542,VALID,157,VALID,0.400391,
2009-09-18, 03:39:04,VALID,1000.75,VALID,0,VALID,84.5896,VALID,0,VALID,23.1762,VALID,157,VALID,0.0539063,
2009-09-18, 03:40:04,VALID,1000.72,VALID,0,VALID,84.4523,VALID,0,VALID,22.9811,VALID,80,VALID,0.562891,
2009-09-18, 03:41:04,VALID,1000.69,VALID,0,VALID,85.0245,VALID,0,VALID,22.7469,VALID,43,VALID,0.792969,
2009-09-18, 03:42:04,VALID,1000.67,VALID,0,VALID,85.9553,VALID,0,VALID,22.4933,VALID,39,VALID,1.02461,
2009-09-18, 03:43:04,VALID,1000.69,VALID,0,VALID,87.321,VALID,0,VALID,22.2983,VALID,34,VALID,1.07461,
2009-09-18, 03:44:04,VALID,1000.66,VALID,0,VALID,88.5494,VALID,0,VALID,22.1812,VALID,45,VALID,1.21758,
2009-09-18, 03:45:04,VALID,1000.68,VALID,0,VALID,88.9461,VALID,0,VALID,22.0837,VALID,61,VALID,0.878516,